Find Starlink 33918

NORAD ID: 63796 Int'l Des: 2025-091 Owner: SPXS Country: US Constellation: starlink operational
LEOCIRCULAR

当前视图

正在加载3D地球...

About Starlink 33918

Starlink 33918 (NORAD 63796) is a starlink constellation satellite (v2 mini) launched May 2, 2025 by SPXS of US. It operates in LEO, CIRCULAR orbit with a mass of 575.00 kg.

关于 Starlink 33918

正在加载描述...

即将过境

Passes for default location (London). Set your location on the main map for personalized predictions.

高度历史

Loading altitude history...

两行轨道根数

1 63796U 25091X 26170.52002354 .00013735 00000-0 50760-3 0 9995
2 63796 43.0010 197.6314 0001349 270.1524 89.9173 15.27588130 64524
Epoch: Jun 19, 2026 • Age: 12 hours

当前状态

高度 494.4 km
速度 7.62 km/s
星下点 -40.53°S, 150.09°W
发射日期 May 2, 2025
运行时间 1.1 years
类型 internet

技术详情

分类 Payload
质量 575.00 kg
干质量 530.00 kg
总质量 575.00 kg
长度 0.30 m
直径 4.10 m
跨度 29.00 m
形状 Box + pan
制造商 SPXS
平台类型 Starlink V2MO
阶段状态 In Orbit
所有者/国家 SPXS/US

Most Searched